Ogdensburg, NY
on Friday, December 8, 2017

Friday
       
Previous Day Next Day
Daily Summary
 ActualAverageRecord
Temperature
Mean Temperature °F °C °F °C  
Max Temperature 34°F 1°C 33°F 0°C 61°F 16°C (1951)
Min Temperature 25°F -4°C 15°F -9°C -13°F -25°C (1989)
Degree Days
Heating Degree Days 36    
Moisture
Dew Point 23°F -5°C   
Average Humidity 75    
Maximum Humidity 92    
Minimum Humidity 61    
Precipitation
Precipitation 0.00 in / 0.00 cm in / cm in / cm ()
Wind
Wind Speed 8 mph / 13 km/h   
Max Wind Speed 16 mph / 26 km/h   
Max Gust Speed 25 mph / 40 km/h   
Visibility 9 miles / 15 kilometers   
Events Snow   
Averages and records for this station are not official NWS values.
Key: T is trace of precipitation, MM is missing value
Source: NWS Daily Summary
Seasonal Weather Averages
Time(EST)TemperatureDew PointHumidity Pressure Visibility Wind DirectionWind SpeedGust SpeedPrecipitationEvents Conditions
12:15 AM 29.3°F -1.5°C 22.1°F -5.5°C 75% 29.88 in / 1011.7 hPa 10.0 miles / 16.1 kilometers WSW 8.1 mph / 13.0 km/h - N/A   Clear
12:35 AM 28.9°F -1.7°C 22.5°F -5.3°C 77% 29.88 in / 1011.7 hPa 10.0 miles / 16.1 kilometers WSW 6.9 mph / 11.1 km/h - N/A   Clear
12:55 AM 28.2°F -2.1°C 22.3°F -5.4°C 78% 29.88 in / 1011.7 hPa 10.0 miles / 16.1 kilometers WSW 8.1 mph / 13.0 km/h - N/A   Clear
1:15 AM 28.4°F -2.0°C 22.6°F -5.2°C 79% 29.88 in / 1011.7 hPa 10.0 miles / 16.1 kilometers WSW 5.8 mph / 9.3 km/h - N/A   Clear
1:35 AM 28.0°F -2.2°C 22.5°F -5.3°C 80% 29.88 in / 1011.7 hPa 10.0 miles / 16.1 kilometers WSW 4.6 mph / 7.4 km/h - N/A   Clear
1:55 AM 27.9°F -2.3°C 22.5°F -5.3°C 80% 29.89 in / 1012.1 hPa 10.0 miles / 16.1 kilometers SW 5.8 mph / 9.3 km/h - N/A   Clear
2:15 AM 27.1°F -2.7°C 22.1°F -5.5°C 81% 29.89 in / 1012.1 hPa 10.0 miles / 16.1 kilometers SSW 5.8 mph / 9.3 km/h - N/A   Clear
2:35 AM 26.4°F -3.1°C 22.1°F -5.5°C 84% 29.89 in / 1012.1 hPa 10.0 miles / 16.1 kilometers South 3.5 mph / 5.6 km/h - N/A   Clear
2:55 AM 26.2°F -3.2°C 22.5°F -5.3°C 86% 29.89 in / 1012.1 hPa 10.0 miles / 16.1 kilometers SSW 4.6 mph / 7.4 km/h - N/A   Scattered Clouds
3:15 AM 25.7°F -3.5°C 22.1°F -5.5°C 86% 29.89 in / 1012.1 hPa 10.0 miles / 16.1 kilometers SSW 4.6 mph / 7.4 km/h - N/A   Clear
3:35 AM 25.7°F -3.5°C 22.6°F -5.2°C 88% 29.90 in / 1012.4 hPa 10.0 miles / 16.1 kilometers WSW 4.6 mph / 7.4 km/h - N/A   Clear
3:55 AM 26.6°F -3.0°C 23.0°F -5.0°C 86% 29.90 in / 1012.4 hPa 10.0 miles / 16.1 kilometers SW 6.9 mph / 11.1 km/h - N/A   Clear
4:15 AM 26.6°F -3.0°C 22.6°F -5.2°C 85% 29.89 in / 1012.1 hPa 10.0 miles / 16.1 kilometers SW 3.5 mph / 5.6 km/h - N/A   Clear
4:35 AM 26.6°F -3.0°C 22.8°F -5.1°C 86% 29.90 in / 1012.4 hPa 10.0 miles / 16.1 kilometers SW 4.6 mph / 7.4 km/h - N/A   Clear
4:55 AM 26.4°F -3.1°C 22.6°F -5.2°C 86% 29.91 in / 1012.8 hPa 10.0 miles / 16.1 kilometers SSW 5.8 mph / 9.3 km/h - N/A   Clear
5:15 AM 27.0°F -2.8°C 23.0°F -5.0°C 85% 29.91 in / 1012.8 hPa 10.0 miles / 16.1 kilometers South 3.5 mph / 5.6 km/h - N/A   Scattered Clouds
5:35 AM 27.3°F -2.6°C 23.2°F -4.9°C 84% 29.91 in / 1012.8 hPa 10.0 miles / 16.1 kilometers SSW 6.9 mph / 11.1 km/h - N/A   Overcast
5:55 AM 27.5°F -2.5°C 23.5°F -4.7°C 85% 29.90 in / 1012.4 hPa 10.0 miles / 16.1 kilometers SSW 5.8 mph / 9.3 km/h - N/A   Scattered Clouds
6:15 AM 27.5°F -2.5°C 23.4°F -4.8°C 84% 29.91 in / 1012.8 hPa 10.0 miles / 16.1 kilometers SSW 5.8 mph / 9.3 km/h - N/A   Scattered Clouds
6:35 AM 28.0°F -2.2°C 23.5°F -4.7°C 83% 29.92 in / 1013.1 hPa 10.0 miles / 16.1 kilometers SSW 5.8 mph / 9.3 km/h - N/A   Mostly Cloudy
6:55 AM 28.6°F -1.9°C 23.5°F -4.7°C 81% 29.91 in / 1012.8 hPa 10.0 miles / 16.1 kilometers SSW 5.8 mph / 9.3 km/h - N/A   Mostly Cloudy
7:15 AM 29.1°F -1.6°C 23.5°F -4.7°C 80% 29.91 in / 1012.8 hPa 10.0 miles / 16.1 kilometers SSW 5.8 mph / 9.3 km/h - N/A   Mostly Cloudy
7:35 AM 28.9°F -1.7°C 23.7°F -4.6°C 81% 29.91 in / 1012.8 hPa 10.0 miles / 16.1 kilometers South 5.8 mph / 9.3 km/h - N/A   Scattered Clouds
7:55 AM 29.1°F -1.6°C 23.9°F -4.5°C 81% 29.91 in / 1012.8 hPa 10.0 miles / 16.1 kilometers South 6.9 mph / 11.1 km/h - N/A   Mostly Cloudy
8:15 AM 29.1°F -1.6°C 24.3°F -4.3°C 82% 29.92 in / 1013.1 hPa 10.0 miles / 16.1 kilometers SSW 6.9 mph / 11.1 km/h - N/A   Overcast
8:35 AM 29.7°F -1.3°C 23.5°F -4.7°C 78% 29.92 in / 1013.1 hPa 10.0 miles / 16.1 kilometers SW 8.1 mph / 13.0 km/h - N/A   Mostly Cloudy
8:55 AM 30.4°F -0.9°C 20.5°F -6.4°C 67% 29.92 in / 1013.1 hPa 10.0 miles / 16.1 kilometers SW 11.5 mph / 18.5 km/h 18.4 mph / 29.6 km/h N/A   Mostly Cloudy
9:15 AM 30.7°F -0.7°C 20.1°F -6.6°C 65% 29.92 in / 1013.1 hPa 10.0 miles / 16.1 kilometers SW 9.2 mph / 14.8 km/h 20.7 mph / 33.3 km/h N/A   Mostly Cloudy
9:35 AM 30.9°F -0.6°C 19.8°F -6.8°C 63% 29.92 in / 1013.1 hPa 10.0 miles / 16.1 kilometers SW 9.2 mph / 14.8 km/h 18.4 mph / 29.6 km/h N/A   Scattered Clouds
9:55 AM 31.1°F -0.5°C 20.1°F -6.6°C 64% 29.93 in / 1013.4 hPa 10.0 miles / 16.1 kilometers SW 9.2 mph / 14.8 km/h 18.4 mph / 29.6 km/h N/A   Scattered Clouds
10:15 AM 31.3°F -0.4°C 20.3°F -6.5°C 64% 29.93 in / 1013.4 hPa 10.0 miles / 16.1 kilometers SW 9.2 mph / 14.8 km/h 19.6 mph / 31.5 km/h N/A   Mostly Cloudy
10:35 AM 31.1°F -0.5°C 20.8°F -6.2°C 66% 29.93 in / 1013.4 hPa 10.0 miles / 16.1 kilometers SW 9.2 mph / 14.8 km/h 16.1 mph / 25.9 km/h N/A   Scattered Clouds
10:55 AM 31.1°F -0.5°C 21.2°F -6.0°C 67% 29.91 in / 1012.8 hPa 10.0 miles / 16.1 kilometers SW 11.5 mph / 18.5 km/h 19.6 mph / 31.5 km/h N/A   Scattered Clouds
11:15 AM 34.2°F 1.2°C 21.9°F -5.6°C 61% 29.89 in / 1012.1 hPa 10.0 miles / 16.1 kilometers SW 11.5 mph / 18.5 km/h 18.4 mph / 29.6 km/h N/A   Scattered Clouds
11:35 AM 32.9°F 0.5°C 21.6°F -5.8°C 63% 29.89 in / 1012.1 hPa 10.0 miles / 16.1 kilometers SW 11.5 mph / 18.5 km/h 24.2 mph / 38.9 km/h N/A   Mostly Cloudy
11:55 AM 32.4°F 0.2°C 22.8°F -5.1°C 68% 29.89 in / 1012.1 hPa 10.0 miles / 16.1 kilometers SW 13.8 mph / 22.2 km/h 17.3 mph / 27.8 km/h N/A   Overcast
12:15 PM 32.0°F 0.0°C 24.3°F -4.3°C 73% 29.90 in / 1012.4 hPa 10.0 miles / 16.1 kilometers SSW 11.5 mph / 18.5 km/h - N/A   Overcast
12:35 PM 32.0°F 0.0°C 26.6°F -3.0°C 80% 29.89 in / 1012.1 hPa 4.0 miles / 6.4 kilometers SSW 9.2 mph / 14.8 km/h 20.7 mph / 33.3 km/h N/A Snow Light Snow
12:55 PM 31.6°F -0.2°C 28.2°F -2.1°C 87% 29.88 in / 1011.7 hPa 1.0 miles / 1.6 kilometers SW 10.4 mph / 16.7 km/h - N/A Snow Light Snow
1:15 PM 31.1°F -0.5°C 29.1°F -1.6°C 92% 29.88 in / 1011.7 hPa 0.8 miles / 1.2 kilometers SSW 8.1 mph / 13.0 km/h - N/A Snow Light Snow
1:35 PM 31.3°F -0.4°C 29.1°F -1.6°C 92% 29.86 in / 1011.1 hPa 1.2 miles / 2.0 kilometers SSW 10.4 mph / 16.7 km/h - N/A Snow Light Snow
1:55 PM 31.6°F -0.2°C 29.1°F -1.6°C 90% 29.86 in / 1011.1 hPa 4.0 miles / 6.4 kilometers SW 8.1 mph / 13.0 km/h - N/A Snow Light Snow
2:15 PM 31.5°F -0.3°C 28.2°F -2.1°C 88% 29.84 in / 1010.4 hPa 4.0 miles / 6.4 kilometers SSW 12.7 mph / 20.4 km/h 18.4 mph / 29.6 km/h N/A Snow Light Snow
2:35 PM 30.9°F -0.6°C 27.5°F -2.5°C 87% 29.85 in / 1010.7 hPa 3.0 miles / 4.8 kilometers SSW 12.7 mph / 20.4 km/h 18.4 mph / 29.6 km/h N/A Snow Light Snow
2:55 PM 30.7°F -0.7°C 27.5°F -2.5°C 88% 29.86 in / 1011.1 hPa 2.5 miles / 4.0 kilometers South 12.7 mph / 20.4 km/h 18.4 mph / 29.6 km/h N/A Snow Light Snow
3:15 PM 30.4°F -0.9°C 27.5°F -2.5°C 89% 29.86 in / 1011.1 hPa 2.5 miles / 4.0 kilometers SSW 11.5 mph / 18.5 km/h 18.4 mph / 29.6 km/h N/A Snow Light Snow
3:35 PM 30.7°F -0.7°C 26.6°F -3.0°C 85% 29.86 in / 1011.1 hPa 10.0 miles / 16.1 kilometers SSW 12.7 mph / 20.4 km/h 18.4 mph / 29.6 km/h N/A Snow Light Snow
3:55 PM 30.9°F -0.6°C 25.9°F -3.4°C 82% 29.86 in / 1011.1 hPa 10.0 miles / 16.1 kilometers South 15.0 mph / 24.1 km/h 18.4 mph / 29.6 km/h N/A   Mostly Cloudy
4:15 PM 31.1°F -0.5°C 25.5°F -3.6°C 80% 29.86 in / 1011.1 hPa 10.0 miles / 16.1 kilometers South 16.1 mph / 25.9 km/h 23.0 mph / 37.0 km/h N/A   Mostly Cloudy
4:35 PM 31.1°F -0.5°C 24.8°F -4.0°C 77% 29.85 in / 1010.7 hPa 10.0 miles / 16.1 kilometers South 15.0 mph / 24.1 km/h 20.7 mph / 33.3 km/h N/A Snow Light Snow
4:55 PM 31.1°F -0.5°C 24.3°F -4.3°C 76% 29.86 in / 1011.1 hPa 10.0 miles / 16.1 kilometers SSW 15.0 mph / 24.1 km/h 23.0 mph / 37.0 km/h N/A   Overcast
5:15 PM 31.5°F -0.3°C 23.5°F -4.7°C 73% 29.86 in / 1011.1 hPa 10.0 miles / 16.1 kilometers SSW 16.1 mph / 25.9 km/h 20.7 mph / 33.3 km/h N/A   Overcast
5:35 PM 31.6°F -0.2°C 23.0°F -5.0°C 70% 29.87 in / 1011.4 hPa 10.0 miles / 16.1 kilometers SSW 15.0 mph / 24.1 km/h 19.6 mph / 31.5 km/h N/A Snow Light Snow
5:55 PM 31.6°F -0.2°C 22.6°F -5.2°C 69% 29.86 in / 1011.1 hPa 10.0 miles / 16.1 kilometers SSW 13.8 mph / 22.2 km/h 20.7 mph / 33.3 km/h N/A   Overcast
6:15 PM 31.8°F -0.1°C 22.1°F -5.5°C 67% 29.86 in / 1011.1 hPa 10.0 miles / 16.1 kilometers SSW 12.7 mph / 20.4 km/h 17.3 mph / 27.8 km/h N/A   Overcast
6:35 PM 32.0°F 0.0°C 21.7°F -5.7°C 66% 29.86 in / 1011.1 hPa 10.0 miles / 16.1 kilometers SSW 12.7 mph / 20.4 km/h 18.4 mph / 29.6 km/h N/A   Overcast
6:55 PM 32.0°F 0.0°C 21.6°F -5.8°C 65% 29.87 in / 1011.4 hPa 10.0 miles / 16.1 kilometers SSW 11.5 mph / 18.5 km/h 20.7 mph / 33.3 km/h N/A   Overcast
7:15 PM 32.0°F 0.0°C 21.2°F -6.0°C 64% 29.87 in / 1011.4 hPa 10.0 miles / 16.1 kilometers SSW 13.8 mph / 22.2 km/h 23.0 mph / 37.0 km/h N/A   Overcast
7:35 PM 32.0°F 0.0°C 21.0°F -6.1°C 64% 29.87 in / 1011.4 hPa 10.0 miles / 16.1 kilometers South 16.1 mph / 25.9 km/h 21.9 mph / 35.2 km/h N/A   Overcast
7:55 PM 32.0°F 0.0°C 20.3°F -6.5°C 62% 29.87 in / 1011.4 hPa 10.0 miles / 16.1 kilometers SSW 16.1 mph / 25.9 km/h 25.3 mph / 40.7 km/h N/A   Overcast
8:15 PM 32.0°F 0.0°C 20.3°F -6.5°C 62% 29.86 in / 1011.1 hPa 10.0 miles / 16.1 kilometers SSW 11.5 mph / 18.5 km/h 18.4 mph / 29.6 km/h N/A   Overcast
8:35 PM 31.6°F -0.2°C 20.3°F -6.5°C 63% 29.86 in / 1011.1 hPa 10.0 miles / 16.1 kilometers SSW 12.7 mph / 20.4 km/h - N/A   Mostly Cloudy
8:55 PM 31.1°F -0.5°C 20.1°F -6.6°C 64% 29.86 in / 1011.1 hPa 10.0 miles / 16.1 kilometers South 13.8 mph / 22.2 km/h 21.9 mph / 35.2 km/h N/A   Mostly Cloudy
9:15 PM 31.1°F -0.5°C 19.8°F -6.8°C 63% 29.87 in / 1011.4 hPa 10.0 miles / 16.1 kilometers SSW 15.0 mph / 24.1 km/h 24.2 mph / 38.9 km/h N/A   Scattered Clouds
9:35 PM 30.7°F -0.7°C 19.8°F -6.8°C 64% 29.87 in / 1011.4 hPa 10.0 miles / 16.1 kilometers SSW 11.5 mph / 18.5 km/h 19.6 mph / 31.5 km/h N/A   Clear
9:55 PM 30.7°F -0.7°C 19.4°F -7.0°C 63% 29.88 in / 1011.7 hPa 10.0 miles / 16.1 kilometers SSW 11.5 mph / 18.5 km/h 17.3 mph / 27.8 km/h N/A   Scattered Clouds
10:15 PM 30.2°F -1.0°C 19.2°F -7.1°C 64% 29.86 in / 1011.1 hPa 10.0 miles / 16.1 kilometers SSW 9.2 mph / 14.8 km/h - N/A   Mostly Cloudy
10:35 PM 30.0°F -1.1°C 19.0°F -7.2°C 64% 29.88 in / 1011.7 hPa 10.0 miles / 16.1 kilometers SSW 10.4 mph / 16.7 km/h 17.3 mph / 27.8 km/h N/A   Mostly Cloudy
10:55 PM 30.0°F -1.1°C 18.9°F -7.3°C 63% 29.87 in / 1011.4 hPa 10.0 miles / 16.1 kilometers SSW 13.8 mph / 22.2 km/h - N/A   Mostly Cloudy
11:15 PM 29.8°F -1.2°C 18.7°F -7.4°C 63% 29.87 in / 1011.4 hPa 10.0 miles / 16.1 kilometers SSW 8.1 mph / 13.0 km/h 16.1 mph / 25.9 km/h N/A   Scattered Clouds
11:35 PM 29.3°F -1.5°C 18.5°F -7.5°C 64% 29.87 in / 1011.4 hPa 10.0 miles / 16.1 kilometers SSW 9.2 mph / 14.8 km/h - N/A   Scattered Clouds
11:55 PM 29.3°F -1.5°C 18.9°F -7.3°C 65% 29.87 in / 1011.4 hPa 10.0 miles / 16.1 kilometers South 10.4 mph / 16.7 km/h - N/A   Scattered Clouds